Weather Roundup
Issued by NWS Chicago, IL

Home | Current Version | Previous Version | Graphics & Text | Print | Product List | Glossary On
Versions: 1 2 3 4 5 6 7 8 9 10 11 12 13 14 15 16 17 18 19 20 21 22 23 24 25 26 27 28 29 30 31 32 33 34 35 36 37 38 39 40 41 42 43 44 45 46 47 48 49 50
000
NZUS59 KLOT 270658
HRRLOT

CHICAGO AREA WEATHER ROUNDUP
NATIONAL WEATHER SERVICE CHICAGO/ROMEOVILLE IL
100 AM CST THU NOV 27 2014

NOTE: "FAIR" INDICATES FEW OR NO CLOUDS BELOW 12,000 FEET WITH NO
SIGNIFICANT WEATHER AND/OR OBSTRUCTIONS TO VISIBILITY.

* THESE STATIONS ARE NOT UNDER NWS QUALITY CONTROL. THEY ALSO MAY NOT
  REPORT WEATHER SUCH AS PRECIPITATION OR FOG.

ILZ005-006-012>014-019>023-270800-
NORTHEAST ILLINOIS

CITY           SKY/WX    TMP DP  RH WIND       PRES   REMARKS
OHARE          FLURRIES  26  21  81 NW13      30.18S WCI  15
MIDWAY         NOT AVBL
AURORA         CLOUDY    23  18  81 NW9       30.22R HAZE    WCI  13
WAUKEGAN       NOT AVBL
DUPAGE AIRPORT CLOUDY    25  19  78 NW8       30.20R WCI  16
WHEELING       CLOUDY    25  20  81 NW9       30.21R WCI  15
NORTHERLY IS     N/A     29  23  78 W9          N/A  WCI  21
$$

WIZ051-052-058>065-066-070>072-270800-
SOUTHEAST WISCONSIN

CITY           SKY/WX    TMP DP  RH WIND       PRES   REMARKS
MILWAUKEE      MOCLDY    22  16  78 NW9       30.19S WCI  12
KENOSHA*       PTCLDY    20  15  81 NW8       30.19R WCI  10
$$

INZ001>003-010>013-019-020-270800-
NORTHWEST INDIANA

CITY           SKY/WX    TMP DP  RH WIND       PRES   REMARKS
GARY*          NOT AVBL
MICHIGAN CITY* NOT AVBL
RENSSELAER*    NOT AVBL
$$

LMZ740>746-270800-
SOUTHERN LAKE MICHIGAN

STATION/POSITION TIME  SKY/WX   TEMP WIND        PRES    VSBY
                                AIR  DIR/SP/G
                 (UTC)          (F)  (DEG/KT/KT) (MB)    (MI)
HARRISON CRIB    0600            28  300/ 11/ 15   N/A
BURNHAM HARBOR   0600            29  280/  7/ 11   N/A
CALUMET HARBOR   0600            29  280/  6/ 11 1020.7R
BURNS HARBOR     NOT AVBL
MICHIGAN CITY    0600            28  150/  4/  5   N/A
$$

ABBREVIATIONS USED IN REMARKS
   TC - TEMPERATURE IN CELSIUS
  WCI - WIND CHILL INDEX
   HX - HEAT INDEX
  VSB - VISIBILITY
$$


USA.gov is the U.S. government's official web portal to all federal, state and local government web resources and services.